Simultaneous Nadir Overpasses (SNOs) Predictions

Prediction of SNOs between METOP-A and NOAA-19 Satellite Orbit:

Table of predicted SNOs for the next 14.0 days since TLE Epoch: 2/2/2017
Index Date (METOP-A) Time (METOP-A) Lat,Lon (METOP-A) SZA (METOP-A ) Date (NOAA-19) Time (NOAA-19) Lat,Lon (NOAA-19) SZA (NOAA-19 ) Distance(km) Time Diff (sec)
1 02/10/2017 14:26:48 77.01, -33.05 91.10 02/10/2017 14:25:36 77.07, -34.29 91.16 31.70 72
2 02/10/2017 15:17:32 -76.89, 133.78 89.04 02/10/2017 15:16:33 -76.90, 133.71 89.03 2.16 59
3 02/10/2017 16:08:13 76.86, -59.00 90.92 02/10/2017 16:07:33 76.87, -58.92 90.93 2.17 40
4 02/10/2017 16:58:54 -76.87, 108.37 89.09 02/10/2017 16:58:34 -76.86, 108.34 89.09 0.93 20
5 02/10/2017 17:49:35 76.84, -84.42 90.88 02/10/2017 17:49:34 76.84, -84.29 90.88 3.17 1
6 02/10/2017 18:40:16 -76.85, 82.95 89.13 02/10/2017 18:40:35 -76.83, 82.96 89.14 1.76 19
7 02/10/2017 19:30:57 76.82,-109.83 90.84 02/10/2017 19:31:36 76.85,-109.84 90.86 2.90 39
8 02/10/2017 20:21:38 -76.83, 57.54 89.17 02/10/2017 20:22:36 -76.80, 57.59 89.20 3.37 58
9 02/10/2017 21:12:22 76.67,-135.76 90.66 02/10/2017 21:13:34 76.69,-134.67 90.68 28.03 72




NCC Satellite Simultaneous Nadir Overpasses (SNOs) Prediction Service
